Home > Weather > Orange > Past weeks

Flag for U.S.A. Weather for the Past 2 Weeks in Orange, California, U.S.A.

Now
70 °F

Sunny.


Feels Like: 73 °F
Forecast: 60 / 86 °F
Wind: 6 mph from Northeast

Location: John Wayne Airport-Orange County Airport

Current Time: Feb 8, 2016 at 7:27:08 AM

Latest Report: Feb 8, 2016 at 6:53 AM


Visibility: 10 mi

Pressure: 30.09 "Hg

Humidity: 17%

Dew point: 23 °F

Location of OrangeLocation

Historic Weather in Orange — Graph

°F

Orange Temperature Yesterday

Maximum temperature yesterday: 86 °F (at 2:53 PM)
Minimum temperature yesterday: 48 °F (at 5:53 AM)
Average temperature yesterday: 68 °F

High & Low Weather Summary for the Past Weeks

 TemperatureHumidityPressure
High86 °F (Feb 7, 2:53 PM)100% (Jan 31, 9:00 AM)30.36 "Hg (Jan 31, 9:00 AM)
Low37 °F (Feb 2, 4:53 AM)9% (Feb 7, 3:53 PM)29.64 "Hg (Jan 31, 1:53 PM)
Average58 °F52%30.12 "Hg
* Reported Jan 24 5:53 AM — Feb 8 5:53 AM, Orange, Weather by CustomWeather, © 2016

Note: Actual official high and low records may vary slightly from our data, if they occured in-between our weather recording intervals... More about our weather records

Advertising

Orange Weather History for the Previous 24 Hours

 ConditionsComfort  
Time TempWeatherWind HumidityBarometerVisibility
5:53 AM
Mon, Feb 8
70 °FClear.7 mph17%30.09 "Hg10 mi
4:53 AM71 °FClear.7 mph16%30.08 "Hg10 mi
3:53 AM71 °FClear.8 mph16%30.08 "Hg10 mi
2:53 AM69 °FClear.6 mph17%30.08 "Hg10 mi
1:53 AM71 °FClear.5 mph15%30.10 "Hg10 mi
12:53 AM73 °FClear.8 mph13%30.11 "Hg10 mi
11:53 PM
Sun, Feb 7
73 °FClear.7 mph13%30.11 "Hg10 mi
10:53 PM72 °FClear.7 mph13%30.10 "Hg10 mi
9:53 PM72 °FClear.6 mph13%30.10 "Hg10 mi
8:53 PM76 °FClear.13 mph10%30.09 "Hg10 mi
7:53 PM75 °FPassing clouds.7 mph11%30.09 "Hg10 mi
6:53 PM74 °FClear.8 mph12%30.08 "Hg10 mi
5:53 PM79 °FClear.9 mph10%30.07 "Hg10 mi
4:53 PM82 °FSunny.13 mph9%30.06 "Hg10 mi
3:53 PM84 °FSunny.12 mph9%30.05 "Hg10 mi
2:53 PM86 °FSunny.12 mph10%30.05 "Hg10 mi
1:53 PM80 °FSunny.6 mph18%30.06 "Hg10 mi
12:53 PM75 °FSunny.9 mph23%30.08 "Hg10 mi
11:53 AM77 °FSunny.12 mph28%30.11 "Hg10 mi
10:53 AM78 °FSunny.3 mph18%30.12 "Hg10 mi
9:53 AM70 °FSunny.3 mph27%30.14 "Hg10 mi
8:53 AM64 °FSunny.No wind33%30.13 "Hg10 mi
7:53 AM54 °FSunny.No wind47%30.11 "Hg10 mi
Weather by CustomWeather, © 2016

See weather overviewHow to use our weather pages